This is the latest recevied weather packets stored in our database for station/object KD9NSC. If no packets are shown the sender has not sent any weather packets the latest 10 day(s).
| Time | Temp. | Humidity | Pressure | Rain* | Wind** | Luminosity | Snow |
|---|---|---|---|---|---|---|---|
| 1777207930 | 10° C | 91% | 1020.4 hPa | 0 mm | - | 32 W/m² | - |
| 1777207624 | 10° C | 92% | 1020.3 hPa | 0 mm | - | 29 W/m² | - |
| 1777207320 | 10° C | 92% | 1020.3 hPa | 0 mm | - | 22 W/m² | - |
| 1777207014 | 9.44° C | 93% | 1020.4 hPa | 0 mm | - | 21 W/m² | - |
| 1777206711 | 9.44° C | 93% | 1020.4 hPa | 0 mm | - | 22 W/m² | - |
| 1777206405 | 9.44° C | 94% | 1020.4 hPa | 0 mm | - | 20 W/m² | - |
| 1777206100 | 9.44° C | 95% | 1020.6 hPa | 0 mm | - | 17 W/m² | - |
| 1777205797 | 8.89° C | 95% | 1020.5 hPa | 0 mm | - | 17 W/m² | - |
| 1777205494 | 8.89° C | 96% | 1020.4 hPa | 0 mm | - | 14 W/m² | - |
| 1777205190 | 8.89° C | 96% | 1020.3 hPa | 0 mm | - | 15 W/m² | - |
| 1777204887 | 8.89° C | 96% | 1020.3 hPa | 0 mm | - | 12 W/m² | - |
| 1777204582 | 8.89° C | 96% | 1020.2 hPa | 0 mm | - | 10 W/m² | - |
| 1777204277 | 8.89° C | 97% | 1020.4 hPa | 0 mm | - | 9 W/m² | - |
| 1777203973 | 8.89° C | 97% | 1020 hPa | 0 mm | - | 8 W/m² | - |
| 1777203668 | 8.89° C | 97% | 1020.2 hPa | 0 mm | - | 7 W/m² | - |
| 1777203364 | 8.89° C | 97% | 1019.9 hPa | 0 mm | - | 7 W/m² | - |
| 1777203061 | 8.33° C | 97% | 1020 hPa | 0 mm | - | 5 W/m² | - |
| 1777202757 | 8.33° C | 97% | 1020 hPa | 0 mm | - | 5 W/m² | - |
| 1777202456 | 8.33° C | 97% | 1019.8 hPa | 0 mm | - | 4 W/m² | - |
| 1777202151 | 8.33° C | 97% | 1019.8 hPa | 0 mm | - | 3 W/m² | - |
| 1777201847 | 8.33° C | 97% | 1019.8 hPa | 0 mm | - | 2 W/m² | - |
| 1777201544 | 8.33° C | 97% | 1019.8 hPa | 0 mm | - | 1 W/m² | - |
| 1777201240 | 8.33° C | 97% | 1019.6 hPa | 0 mm | - | 1 W/m² | - |
| 1777200935 | 8.33° C | 97% | 1019.5 hPa | 0 mm | - | 0 W/m² | - |
| 1777200633 | 8.33° C | 97% | 1019.5 hPa | 0 mm | - | 0 W/m² | - |
* Rain latest hour (hover to see other rain measurements)
** Current wind speed in m/s (hover to see current wind gust speed)